EDT,Max TemperatureF,Mean TemperatureF,Min TemperatureF,Max Dew PointF,MeanDew PointF,Min DewpointF,Max Humidity, Mean Humidity, Min Humidity, Max Sea Level PressureIn, Mean Sea Level PressureIn, Min Sea Level PressureIn, Max VisibilityMiles, Mean VisibilityMiles, Min VisibilityMiles, Max Wind SpeedMPH, Mean Wind SpeedMPH, Max Gust SpeedMPH,PrecipitationIn, CloudCover, Events, WindDirDegrees
2014-6-1,79,69,60,61,55,51,90,64,39,30.33,30.27,30.21,10,10,10,8,4,,0.00,2,,71
2014-6-2,80,66,54,58,55,51,93,69,40,30.31,30.24,30.15,10,10,10,7,1,,0.00,1,,230
2014-6-3,86,72,59,65,59,55,87,64,43,30.15,30.06,29.97,10,10,10,12,3,,0.00,1,,252
2014-6-4,91,78,64,67,65,63,93,62,39,29.96,29.88,29.80,10,10,7,13,5,18,0.00,0,,226
2014-6-5,93,82,73,69,66,63,84,60,38,29.85,29.78,29.75,10,10,10,15,10,22,0.00,2,,258
2014-6-6,88,78,70,66,60,56,73,56,37,29.94,29.90,29.83,10,10,10,10,7,,0.00,2,,30
2014-6-7,84,76,71,68,65,61,90,73,51,30.03,29.98,29.93,10,9,4,8,5,,0.00,6,,76
2014-6-8,78,72,66,72,69,64,94,86,74,30.00,29.93,29.87,10,9,2,8,4,,0.18,6,Rain-Thunderstorm,181
2014-6-9,88,80,71,70,69,65,93,77,49,29.94,29.89,29.85,10,8,4,10,3,,0.00,5,Rain-Thunderstorm,217
2014-6-10,93,80,70,71,68,64,93,68,42,29.96,29.92,29.88,10,10,4,14,5,18,0.00,1,,221
2014-6-11,89,80,69,69,66,62,93,75,45,29.98,29.91,29.84,10,7,0,29,7,38,1.49,4,Fog-Rain-Thunderstorm,237
2014-6-12,84,76,68,69,67,65,96,86,53,29.95,29.89,29.84,10,7,1,9,1,,0.01,5,Rain-Thunderstorm,232
2014-6-13,86,76,68,69,66,63,96,82,53,29.90,29.87,29.82,10,7,0,14,5,22,0.04,4,Fog-Rain-Thunderstorm,242
2014-6-14,88,78,68,65,63,60,84,65,41,30.06,29.99,29.90,10,10,10,13,4,,0.00,0,,16
2014-6-15,91,76,64,68,61,56,84,59,34,30.17,30.11,30.06,10,10,10,9,3,,0.00,0,,64
2014-6-16,91,78,66,71,68,65,96,80,45,30.21,30.16,30.10,10,6,0,8,1,,0.00,1,Fog,304
2014-6-17,93,80,70,72,68,65,93,66,42,30.19,30.14,30.08,10,10,6,13,5,,0.00,0,,222
2014-6-18,93,82,72,70,67,62,84,63,35,30.14,30.11,30.06,10,10,9,15,7,29,0.00,0,,234
2014-6-19,95,82,72,70,68,65,91,68,40,30.14,30.07,30.01,10,9,1,14,7,25,0.74,2,Rain-Thunderstorm,241
2014-6-20,93,80,70,68,66,63,90,65,39,30.06,30.00,29.93,10,10,9,10,4,,0.00,0,,284
2014-6-21,89,80,70,72,69,65,93,71,48,29.94,29.88,29.81,10,9,2,14,4,29,0.18,2,Rain-Thunderstorm,306
2014-6-22,89,79,70,70,66,62,93,67,43,29.96,29.89,29.83,10,9,2,12,4,,0.00,1,,35
2014-6-23,88,79,71,69,67,65,90,72,49,30.11,30.06,29.97,10,10,10,8,5,,0.00,5,,62
2014-6-24,82,76,72,73,71,68,94,85,69,30.13,30.08,30.01,10,8,0,8,3,,0.28,7,Fog-Rain-Thunderstorm,81
2014-6-25,90,78,70,73,70,68,97,84,55,30.03,30.00,29.93,10,7,1,15,5,24,0.08,4,Rain-Thunderstorm,232
2014-6-26,91,80,70,71,67,63,93,65,40,30.02,29.98,29.91,10,10,9,8,5,,0.00,1,,283
2014-6-27,89,80,72,72,70,66,93,80,59,30.12,30.04,29.97,10,9,2,10,4,,0.39,5,Rain-Thunderstorm,44
2014-6-28,82,76,71,71,70,68,93,81,65,30.22,30.17,30.11,10,9,6,12,6,,0.02,6,Rain,42
2014-6-29,84,76,69,70,64,56,93,71,44,30.25,30.19,30.13,10,9,2,8,3,,0.00,4,,56
2014-6-30,87,76,66,72,69,63,93,77,51,30.12,30.04,29.97,10,8,0,18,3,23,0.83,4,Fog-Rain-Thunderstorm,227